Temperature
16 17 17 17 20 21 22 22 21 21 21 20 19 20 22 22 22 20 16 15 16 16 16 16 16 16 16 16 16 16 16 16 16 16 16 16 16 16 16 16 16 16 16 16 16 15 15 15 15
16 16 16 18 21 21 21 21 21 21 19 18 18 19 20 20 17 15 15 15 15 15 15 16 16 16 16 16 16 16 16 16 16 16 16 16 16 16 15 15 15 15 15 15 15 15 15 15 15
15 16 17 19 20 21 21 21 20 19 18 18 18 18 19 18 15 14 15 15 15 15 15 15 16 16 15 16 16 16 16 16 16 15 16 16 16 15 15 15 15 15 15 15 15 15 15 15 15
15 15 17 19 20 20 20 20 19 19 18 17 18 18 17 15 14 14 15 15 15 15 15 15 15 15 15 15 15 15 15 16 15 15 15 15 15 15 15 15 15 15 15 15 15 15 15 15 15
14 16 18 18 19 19 19 18 18 19 19 18 18 18 16 14 14 14 15 14 14 14 14 15 15 15 15 15 15 15 15 15 15 15 15 15 15 15 15 15 15 15 15 15 15 15 15 15 15
15 17 18 19 19 18 18 17 17 18 18 17 17 18 16 14 14 14 14 14 14 14 14 15 15 15 15 15 15 15 15 15 15 15 15 15 15 15 15 15 15 14 14 14 14 14 14 14 14
15 16 17 18 18 18 17 15 16 17 17 17 16 17 16 14 13 14 14 14 14 14 14 14 14 14 15 15 15 15 15 15 15 15 14 14 15 15 14 14 14 14 14 14 14 14 14 14 14
13 16 16 17 17 17 15 14 14 15 16 14 15 16 16 13 13 13 13 13 13 14 14 14 14 14 14 14 14 14 15 15 14 14 14 14 14 14 14 14 14 14 14 14 14 14 14 14 14
12 15 15 16 16 16 14 14 13 12 13 13 13 14 13 12 12 13 13 13 13 13 13 14 14 14 14 14 14 14 14 14 14 14 14 14 14 14 14 14 14 14 14 14 14 14 13 14 13
12 14 14 14 14 14 13 13 12 13 14 13 13 12 12 12 12 12 12 12 13 13 13 13 14 14 14 14 14 14 14 14 14 14 14 14 14 13 13 13 13 13 13 13 13 13 13 13 13
11 12 12 12 11 11 12 12 11 13 14 14 13 12 11 11 11 12 12 12 12 13 13 13 13 13 13 13 13 14 14 14 13 14 14 14 13 13 13 13 13 13 13 13 13 13 13 13 13
11 11 10 11 10 10 11 11 11 12 12 12 12 11 11 11 11 11 11 12 12 12 13 13 13 13 13 13 13 13 13 13 13 13 13 13 13 13 13 13 13 12 12 12 12 12 12 12 12
10 10 9 9 9 9 9 10 10 10 11 11 11 11 11 11 11 11 11 11 11 12 12 12 12 13 13 13 13 13 13 13 13 13 13 13 13 13 12 12 12 12 12 12 12 12 12 12 12
9 9 9 9 9 9 9 10 10 10 10 10 10 10 10 10 10 10 11 11 11 11 12 12 12 12 12 12 13 12 12 13 13 13 12 12 12 12 12 12 12 12 12 12 12 11 11 11 11
8 9 10 9 9 9 9 10 11 10 10 10 10 10 10 10 10 10 10 10 11 11 11 12 12 12 12 12 12 12 12 12 12 12 12 12 12 12 12 12 12 12 11 11 11 11 11 11 11
9 10 10 10 9 9 10 11 12 10 10 10 10 10 10 10 10 10 10 10 10 10 11 11 11 12 12 12 12 12 12 12 12 12 12 12 12 12 12 12 11 11 11 11 11 11 11 11 11
9 10 10 10 9 9 9 10 11 10 10 10 10 10 10 9 9 10 10 10 10 10 11 11 11 11 11 11 11 11 11 11 11 11 11 11 11 12 11 11 11 11 11 11 11 10 10 10 10
9 10 10 10 9 9 9 10 10 10 10 10 10 10 9 9 9 9 9 10 10 10 10 10 11 11 11 11 11 11 11 11 11 11 11 11 11 11 11 11 11 11 10 10 10 10 10 10 10
8 8 9 9 9 8 9 9 10 10 10 10 10 10 9 9 9 9 9 9 10 10 10 10 10 10 10 10 10 10 10 10 10 11 11 11 11 11 11 10 10 10 10 10 10 10 9 9 9
7 8 8 9 8 8 8 9 10 10 10 10 10 9 9 9 8 8 8 9 9 9 9 10 10 10 10 10 10 10 10 10 10 10 10 10 10 10 10 10 10 10 10 10 10 9 9 9 9
7 8 8 8 8 8 8 10 11 11 10 9 9 9 9 9 8 8 8 8 8 9 9 9 9 9 9 9 9 9 9 9 9 10 10 10 10 10 10 10 10 10 9 9 9 9 9 9 9
8 8 7 7 7 8 8 10 11 10 10 10 9 9 9 8 8 8 8 8 8 8 9 9 9 9 9 9 9 9 9 9 9 9 9 9 9 9 9 9 9 9 9 9 9 9 9 8 8
7 7 7 7 7 7 8 8 11 10 10 10 10 9 8 8 8 8 8 8 8 8 8 8 8 8 9 9 9 9 9 9 9 9 9 9 9 9 9 9 9 9 9 9 9 9 8 8 8
6 6 7 7 7 7 8 8 10 10 10 10 10 9 8 8 7 7 7 7 8 8 8 8 8 8 8 8 8 8 8 8 8 8 8 8 8 9 9 8 8 8 8 8 8 8 8 8 8
6 7 8 8 8 9 8 8 10 10 10 9 9 9 8 7 7 7 7 7 7 7 8 7 7 8 7 7 7 7 8 8 8 8 8 8 8 8 8 8 8 8 8 8 8 8 8 8 7
6 7 7 8 9 10 8 8 10 10 9 8 8 8 7 7 7 7 6 6 7 7 7 7 7 7 7 7 7 7 7 7 7 8 8 8 8 8 8 8 8 7 7 7 7 7 7 7 7
6 6 6 6 6 7 9 9 10 9 8 8 8 7 7 7 6 6 6 6 6 6 6 7 7 7 7 7 7 7 7 7 7 7 7 7 7 7 7 7 7 7 7 7 7 7 7 6 6
6 6 6 6 7 8 9 10 10 9 8 8 7 7 6 6 6 6 6 6 6 6 6 6 6 7 7 7 7 7 7 7 7 6 6 7 7 7 7 7 7 7 7 7 7 6 6 6 6
5 5 5 6 6 8 9 10 10 8 8 8 7 6 6 5 5 5 5 5 5 5 6 6 6 6 6 6 6 6 6 6 6 6 6 6 6 6 6 6 6 6 6 6 6 6 6 5 5
4 5 5 6 5 6 8 9 8 7 7 7 6 6 5 5 5 5 4 4 5 5 5 5 5 6 6 6 6 5 6 6 6 6 6 6 6 6 6 6 6 6 6 6 6 5 5 5 5
Wind_Speed
9 6 3 3 4 5 10 7 5 4 3 2 1 2 2 1 1 2 3 2 2 4 6 10 8 9 9 9 9 9 10 10 10 11 11 11 11 11 11 11 11 11 11 11 12 12 12 12 12
7 3 2 3 7 10 9 8 7 5 2 2 2 2 2 1 2 3 2 2 2 4 6 8 9 9 9 9 9 10 10 10 10 10 10 10 10 10 11 10 10 11 11 11 12 11 11 11 11
4 2 2 4 7 12 10 5 5 4 3 2 2 1 1 1 2 2 2 2 3 5 6 8 8 9 10 9 9 9 10 10 10 10 9 9 10 10 10 10 10 11 11 11 11 11 11 10 10
2 2 3 6 12 11 8 4 3 4 4 3 2 2 2 3 2 2 2 3 4 4 5 8 7 7 9 9 9 9 9 10 9 9 9 9 9 9 10 10 10 10 10 10 10 10 10 10 9
1 3 6 9 14 10 7 4 5 6 4 3 4 3 2 2 3 3 3 3 4 4 4 7 7 6 7 8 9 9 9 9 9 9 9 9 9 8 9 9 10 10 10 9 9 9 9 9 8
2 4 8 13 14 10 7 5 6 7 5 3 3 4 2 3 2 3 3 3 4 4 4 6 6 7 6 7 8 9 9 9 8 8 9 9 9 8 9 9 9 9 9 9 9 8 8 7 7
3 5 10 12 11 10 6 4 6 6 7 5 3 4 3 2 1 2 2 3 3 4 4 4 5 6 6 6 7 8 8 8 8 8 8 9 9 8 8 8 9 9 9 9 8 8 8 7 7
1 3 7 10 11 10 4 3 4 5 6 3 4 4 3 2 1 2 2 3 3 3 4 3 3 4 5 6 7 7 8 8 8 8 8 9 9 8 8 8 8 8 8 8 8 8 7 7 6
1 5 9 10 9 6 3 3 3 3 4 4 4 4 3 2 3 3 2 2 2 2 2 3 3 3 4 5 6 7 7 7 8 8 9 8 7 7 7 7 8 7 7 8 8 7 7 6 6
2 6 9 6 5 4 4 5 4 4 6 6 5 3 1 3 4 5 5 4 4 3 3 2 2 2 3 4 5 6 6 7 7 7 8 6 6 5 5 8 8 7 7 7 7 7 7 5 4
2 5 5 4 4 4 6 6 6 7 8 8 7 5 3 4 4 5 6 6 6 5 4 3 3 3 3 3 3 3 4 5 6 7 7 6 5 5 5 5 6 6 6 6 6 6 4 3 3
3 4 5 5 4 5 6 7 7 9 10 8 8 6 6 7 7 6 7 7 6 5 5 4 4 3 3 3 3 3 3 4 4 5 7 6 4 4 4 4 4 5 4 4 4 3 3 3 3
5 5 4 5 5 6 7 9 10 12 10 9 7 7 8 8 8 7 7 7 7 6 5 5 4 4 3 3 3 3 3 4 4 4 5 6 4 4 4 3 4 4 4 4 3 3 3 3 3
3 4 5 6 7 7 8 10 10 12 8 7 8 8 9 9 9 8 7 8 8 7 6 5 5 5 4 3 3 4 4 4 4 4 5 6 5 4 4 4 4 4 4 3 3 3 2 2 2
4 5 5 5 6 5 6 11 12 10 8 8 9 9 9 9 9 9 8 9 9 8 7 7 6 6 5 4 4 4 4 4 4 5 5 5 5 5 5 4 3 3 4 4 3 3 2 2 2
4 5 5 4 4 5 7 13 10 8 8 10 10 9 8 9 10 9 8 8 8 8 8 7 6 6 6 5 4 3 4 4 5 5 5 5 5 5 5 4 3 3 4 3 3 3 3 2 2
3 5 7 6 4 5 7 12 10 8 9 11 10 10 9 9 9 9 8 8 8 8 8 8 7 7 6 5 4 4 4 4 5 5 5 5 5 6 5 4 4 4 3 3 3 3 3 3 2
4 6 7 8 4 6 10 14 12 9 10 11 10 10 9 10 10 8 8 7 6 7 7 8 7 7 5 4 4 3 3 4 4 5 5 6 6 6 5 4 5 5 4 3 4 3 3 3 3
5 7 9 9 6 7 12 15 13 10 10 11 10 10 9 10 8 7 6 6 5 6 7 8 8 7 5 4 4 4 4 4 4 4 6 6 6 6 5 4 5 5 4 5 5 3 4 3 2
6 7 8 7 5 7 11 15 13 10 11 10 10 10 9 8 8 7 6 5 6 7 7 8 8 7 7 6 6 4 4 4 4 4 5 6 6 6 5 5 5 5 4 5 5 4 4 3 3
7 8 8 8 8 6 8 9 8 8 8 8 8 8 8 8 9 7 6 6 6 6 7 7 7 7 7 7 5 4 3 3 3 4 5 6 6 7 6 6 5 5 5 5 6 6 6 4 4
6 5 7 7 6 4 4 6 7 7 8 7 7 6 7 7 7 7 6 6 7 7 6 6 6 6 6 7 8 8 6 6 5 5 5 5 6 6 7 6 6 6 5 6 6 6 6 6 5
4 4 6 6 5 6 6 6 7 6 8 8 8 7 7 6 6 5 5 6 6 6 5 5 6 6 7 7 8 8 7 6 4 5 5 5 5 6 6 6 6 6 6 6 6 6 6 6 6
3 3 4 4 4 6 6 7 7 5 7 7 7 7 6 5 5 5 4 4 5 4 4 5 5 6 6 7 8 9 8 7 6 6 6 5 4 5 6 6 6 6 5 5 5 5 7 6 6
2 2 2 2 3 5 3 6 8 6 5 6 7 7 5 4 4 4 5 5 5 5 5 4 5 6 6 7 7 8 8 8 9 8 7 6 5 5 6 6 6 6 6 6 6 5 6 6 6
4 3 3 3 5 5 4 8 6 4 4 5 5 5 4 4 4 4 5 6 6 5 5 5 6 6 6 7 7 7 7 6 6 8 7 7 6 5 6 6 6 6 6 6 6 5 5 5 6
3 4 3 3 4 6 6 6 8 5 5 4 4 4 4 5 5 5 5 6 5 5 6 6 6 5 5 6 7 7 7 7 7 7 6 5 5 5 6 6 6 6 6 6 6 5 5 5 6
4 3 3 3 4 6 7 8 6 4 4 4 5 5 5 6 6 5 5 5 4 4 5 4 5 5 5 5 5 5 7 7 7 6 7 6 6 5 6 6 6 6 6 6 6 5 5 5 5
4 4 4 3 4 5 7 6 1 3 4 5 5 6 6 6 6 5 5 4 4 4 4 4 4 4 4 4 4 5 6 6 6 6 6 6 5 6 7 6 6 6 6 6 6 6 6 6 5
6 6 7 5 5 6 6 7 1 3 4 5 6 7 7 7 5 5 5 5 4 4 4 4 4 4 4 4 4 5 5 5 5 6 6 6 6 6 6 6 6 6 6 6 6 6 6 6 6
Wind_Direction
328 319 282 234 215 222 230 217 208 188 192 203 204 218 222 206 268 75 43 62 93 137 147 154 151 145 140 136 132 131 133 131 132 130 130 130 130 127 124 118 115 112 109 106 104 102 100 96 94
325 306 234 221 226 224 225 218 210 204 175 164 182 207 201 165 41 64 69 58 112 131 138 150 142 143 137 134 131 131 130 128 128 129 130 131 131 130 126 122 117 112 110 108 106 104 102 98 96
311 292 226 211 225 229 220 202 210 203 185 189 180 197 220 101 83 82 58 115 120 130 135 131 131 140 137 135 134 133 131 129 128 127 131 132 134 132 128 126 121 117 114 111 109 108 106 103 100
271 205 215 224 226 230 230 206 196 188 194 205 200 162 130 64 61 57 97 127 122 127 132 129 126 133 138 137 136 137 134 131 129 130 133 132 132 132 131 127 123 120 118 116 114 112 111 107 106
257 212 210 224 233 231 233 244 228 217 204 200 211 209 168 102 59 81 108 124 121 120 118 130 126 125 134 140 139 138 138 136 134 133 136 134 131 131 133 131 127 125 122 119 117 116 116 112 112
191 214 222 228 230 228 232 244 236 236 226 213 218 221 193 114 86 93 114 124 116 115 117 127 122 117 121 133 139 138 139 139 136 133 135 134 131 129 128 129 129 128 126 123 120 118 118 115 117
209 214 230 234 236 233 232 243 233 235 229 232 248 229 197 148 91 123 137 131 116 108 113 128 141 136 125 128 133 135 141 141 138 135 136 135 133 132 130 128 130 128 126 127 126 124 123 119 117
257 212 229 230 233 236 227 235 247 243 237 255 248 235 221 184 139 164 148 139 126 123 117 108 136 150 151 149 138 132 138 142 139 135 134 133 134 135 133 133 129 131 131 129 128 127 127 125 119
230 221 229 228 231 236 232 238 256 276 243 242 245 266 290 162 163 171 162 161 149 143 139 134 125 147 158 156 150 145 140 145 148 144 135 142 148 145 147 135 126 130 136 135 134 132 129 128 125
203 224 234 240 244 251 260 264 266 249 239 241 241 260 260 167 182 189 192 196 194 193 188 173 158 146 160 159 161 164 162 164 170 164 159 159 154 148 143 131 128 128 132 138 136 136 143 155 142
199 224 234 247 262 273 264 272 266 247 244 245 246 245 231 209 209 214 213 210 209 207 206 198 183 161 157 166 164 165 166 170 178 174 168 165 154 148 148 146 142 141 145 147 147 160 165 165 151
207 232 247 249 264 274 269 268 265 254 253 266 264 251 235 226 224 225 228 224 218 214 215 211 193 180 167 174 170 171 174 173 172 175 175 169 162 163 162 163 164 166 169 163 174 179 172 171 170
226 238 250 261 259 268 274 264 264 262 267 266 255 243 237 236 235 234 235 232 226 219 217 215 202 194 178 173 180 179 186 181 173 173 179 178 175 173 169 172 172 177 179 180 177 185 179 179 179
223 243 257 266 265 266 265 268 261 258 262 254 243 239 241 241 240 237 236 232 230 224 220 218 208 200 191 188 186 186 190 183 178 175 179 185 181 177 178 177 179 181 184 188 189 189 193 193 197
237 261 259 258 254 254 268 264 250 254 255 252 247 246 250 249 244 237 236 232 231 225 221 217 210 203 198 199 192 190 190 183 184 184 182 185 187 182 179 182 186 186 190 191 194 193 200 211 211
231 240 248 249 254 250 246 258 252 252 248 252 249 249 251 251 251 245 240 236 232 226 222 218 214 211 203 203 195 190 195 190 188 190 185 185 188 187 183 182 186 189 192 194 201 207 210 216 229
219 244 254 267 255 258 246 262 265 261 254 252 248 247 251 256 260 249 242 234 230 225 218 212 209 210 204 204 198 192 197 198 190 188 186 188 190 193 190 186 184 185 189 199 207 216 222 225 237
241 255 258 262 270 267 258 262 270 263 250 248 246 248 250 256 256 249 245 236 228 224 214 207 206 207 201 201 193 186 199 207 194 193 192 191 194 198 197 193 191 190 192 201 207 215 227 235 237
251 258 267 273 280 276 262 264 264 259 252 249 248 248 249 255 253 246 244 239 231 228 218 206 207 206 200 201 194 194 208 211 202 202 199 197 196 199 201 198 197 200 202 207 209 210 218 235 235
249 260 271 280 285 277 273 271 262 249 245 245 246 249 248 249 248 246 239 235 233 227 225 216 213 209 209 210 199 206 211 212 213 207 206 202 200 201 205 207 204 206 206 208 209 208 217 233 226
247 250 265 283 302 270 281 271 249 246 241 245 246 245 248 247 242 239 237 236 233 230 227 220 214 211 217 212 195 196 199 201 212 215 213 212 207 205 207 213 212 210 209 211 215 214 217 224 229
255 256 264 275 288 286 287 277 258 251 246 245 245 245 252 257 247 236 241 244 241 236 233 225 217 216 218 208 206 204 208 214 223 222 222 214 210 209 210 214 216 212 212 214 217 219 222 220 224
254 284 265 262 262 272 256 259 264 248 252 252 247 246 250 256 251 245 246 246 246 240 232 230 225 220 216 211 211 211 217 223 220 221 223 218 212 211 211 215 220 217 215 217 217 218 220 221 224
248 256 253 245 246 256 245 244 266 246 250 258 252 253 252 254 254 262 277 280 261 248 238 234 230 225 217 216 217 218 217 214 214 221 223 221 218 215 213 213 219 222 219 217 217 218 221 222 224
227 245 276 248 240 254 235 243 258 262 262 259 255 255 260 264 263 274 287 290 275 251 239 240 233 227 221 220 222 222 220 216 215 219 224 221 220 222 218 215 220 223 218 216 213 215 222 223 221
225 229 236 263 267 278 248 248 262 278 289 281 271 268 271 274 279 284 285 279 271 260 241 237 235 237 232 226 227 223 222 222 222 220 222 221 220 224 221 216 218 224 218 216 212 215 220 223 223
208 212 243 258 277 273 257 263 277 272 289 297 292 291 285 288 292 292 290 282 268 263 252 240 242 245 243 238 233 225 221 222 225 224 222 221 217 219 219 216 212 221 217 213 212 216 220 223 225
235 198 201 222 255 267 269 261 257 257 265 280 289 288 291 296 298 297 294 283 273 270 273 264 254 251 249 246 239 230 222 219 222 224 224 221 217 213 214 217 214 218 217 212 212 217 221 223 224
201 204 215 227 256 261 273 267 259 256 265 269 277 284 294 297 298 298 296 283 276 278 280 278 275 273 263 250 245 238 229 219 220 225 225 221 220 216 213 214 215 218 217 213 211 217 218 222 225
234 225 212 229 239 245 267 274 12 293 291 284 290 298 297 290 291 292 293 287 284 283 282 283 282 278 273 265 250 244 233 221 218 226 227 220 219 221 215 213 215 216 216 215 212 214 216 218 223
Height
1522 1523 1524 1526 1525 1521 1516 1515 1516 1518 1520 1523 1523 1523 1521 1521 1522 1528 1528 1526 1526 1527 1529 1530 1532 1533 1535 1536 1537 1538 1539 1539 1540 1540 1541 1541 1541 1542 1542 1542 1543 1543 1543 1543 1543 1543 1543 1542 1542
1521 1523 1526 1526 1520 1518 1514 1514 1517 1518 1522 1524 1524 1524 1523 1524 1526 1527 1525 1525 1526 1527 1529 1530 1532 1534 1535 1536 1537 1538 1539 1540 1540 1541 1541 1542 1542 1542 1543 1543 1543 1543 1543 1543 1543 1543 1543 1543 1543
1521 1523 1526 1521 1516 1511 1510 1514 1517 1521 1523 1524 1524 1524 1524 1526 1527 1526 1525 1525 1527 1528 1529 1530 1532 1534 1535 1536 1537 1538 1539 1540 1541 1541 1542 1542 1543 1543 1543 1544 1544 1544 1544 1544 1544 1544 1544 1544 1544
1522 1525 1525 1520 1514 1511 1512 1516 1520 1521 1523 1524 1523 1524 1525 1526 1526 1526 1525 1526 1527 1528 1530 1530 1532 1534 1535 1536 1537 1538 1539 1540 1541 1541 1542 1542 1543 1543 1544 1544 1544 1545 1545 1545 1545 1545 1545 1544 1544
1522 1523 1520 1517 1512 1513 1516 1519 1521 1519 1521 1522 1523 1522 1524 1525 1525 1525 1525 1526 1527 1528 1530 1530 1532 1534 1535 1536 1537 1538 1539 1540 1541 1541 1542 1542 1543 1543 1544 1544 1544 1545 1545 1545 1545 1545 1545 1545 1545
1523 1520 1515 1511 1509 1513 1517 1521 1521 1520 1520 1522 1523 1522 1524 1524 1524 1524 1525 1526 1527 1528 1529 1530 1532 1533 1534 1536 1537 1538 1539 1540 1540 1541 1542 1542 1543 1543 1544 1544 1545 1545 1545 1545 1545 1545 1545 1545 1545
1522 1518 1513 1510 1511 1513 1518 1522 1521 1520 1520 1522 1523 1522 1523 1524 1524 1524 1525 1526 1527 1528 1529 1530 1531 1532 1534 1535 1536 1537 1538 1539 1540 1540 1541 1542 1542 1543 1543 1544 1544 1544 1545 1545 1545 1545 1545 1545 1545
1521 1520 1516 1514 1513 1514 1520 1522 1522 1522 1521 1523 1523 1522 1522 1523 1522 1523 1524 1525 1526 1527 1528 1529 1530 1531 1533 1534 1535 1536 1537 1538 1539 1539 1540 1541 1541 1542 1542 1543 1543 1544 1544 1544 1544 1545 1545 1545 1545
1521 1521 1515 1514 1515 1516 1521 1522 1523 1523 1523 1522 1522 1522 1522 1521 1521 1522 1523 1524 1525 1526 1527 1528 1529 1530 1531 1532 1533 1534 1535 1536 1537 1538 1539 1540 1540 1541 1542 1542 1543 1543 1543 1544 1544 1544 1544 1544 1544
1521 1518 1515 1518 1519 1520 1522 1522 1523 1522 1520 1520 1521 1521 1520 1520 1520 1521 1521 1521 1522 1523 1525 1526 1527 1528 1529 1530 1531 1532 1534 1534 1536 1537 1537 1538 1539 1540 1540 1541 1541 1542 1542 1543 1543 1543 1543 1544 1544
1521 1519 1520 1521 1522 1522 1522 1522 1522 1520 1517 1518 1518 1518 1518 1518 1518 1519 1520 1520 1521 1521 1522 1523 1525 1525 1527 1528 1529 1530 1531 1532 1533 1534 1535 1537 1537 1538 1539 1539 1540 1541 1541 1542 1542 1542 1543 1543 1543
1522 1522 1522 1522 1523 1523 1522 1521 1521 1519 1517 1517 1517 1517 1516 1516 1516 1517 1518 1518 1519 1519 1520 1521 1522 1523 1524 1525 1527 1527 1529 1530 1531 1532 1533 1534 1535 1536 1537 1538 1539 1539 1540 1540 1541 1541 1541 1542 1542
1521 1522 1522 1522 1522 1522 1521 1520 1519 1516 1516 1515 1515 1515 1514 1514 1514 1514 1516 1516 1517 1517 1517 1518 1519 1520 1521 1522 1524 1525 1526 1527 1528 1529 1531 1532 1533 1534 1535 1536 1537 1537 1538 1538 1539 1539 1540 1540 1540
1521 1521 1521 1521 1520 1520 1519 1517 1517 1512 1513 1512 1512 1512 1512 1512 1512 1512 1512 1513 1513 1513 1514 1515 1516 1517 1518 1519 1521 1523 1524 1524 1526 1527 1528 1530 1531 1532 1532 1533 1534 1535 1536 1536 1537 1538 1538 1538 1538
1522 1520 1518 1517 1517 1517 1518 1513 1510 1510 1511 1510 1509 1508 1508 1508 1508 1508 1508 1509 1510 1510 1511 1512 1513 1514 1515 1516 1518 1520 1520 1522 1523 1524 1526 1527 1528 1529 1530 1531 1532 1533 1533 1534 1535 1535 1536 1536 1536
1519 1517 1513 1514 1516 1516 1518 1506 1506 1507 1507 1506 1506 1505 1505 1505 1505 1505 1505 1505 1506 1507 1507 1508 1509 1511 1512 1513 1515 1516 1518 1518 1520 1522 1523 1524 1526 1527 1527 1528 1529 1530 1531 1532 1532 1533 1533 1534 1534
1515 1512 1510 1511 1513 1513 1512 1504 1503 1504 1504 1502 1502 1501 1501 1501 1500 1500 1500 1501 1502 1502 1503 1504 1506 1507 1508 1510 1511 1513 1515 1516 1517 1518 1520 1521 1523 1524 1525 1525 1526 1527 1528 1529 1530 1530 1531 1531 1531
1512 1510 1509 1509 1510 1511 1508 1503 1501 1502 1501 1499 1498 1497 1497 1497 1496 1496 1496 1497 1497 1498 1500 1501 1503 1504 1505 1507 1508 1510 1511 1512 1514 1515 1516 1518 1520 1521 1522 1522 1524 1524 1525 1526 1527 1527 1528 1528 1528
1515 1513 1510 1508 1510 1510 1504 1499 1497 1498 1497 1495 1494 1493 1493 1492 1492 1493 1493 1493 1494 1495 1497 1497 1499 1500 1502 1503 1504 1506 1507 1509 1510 1511 1513 1514 1516 1518 1518 1519 1520 1521 1522 1522 1524 1524 1525 1525 1525
1515 1514 1509 1507 1509 1508 1502 1495 1492 1493 1492 1491 1490 1490 1489 1489 1489 1489 1489 1490 1490 1491 1492 1494 1495 1496 1497 1499 1501 1503 1504 1505 1506 1507 1509 1511 1512 1514 1515 1516 1516 1517 1518 1519 1520 1521 1521 1521 1522
1514 1512 1508 1508 1507 1505 1502 1489 1485 1486 1488 1488 1487 1486 1486 1486 1485 1486 1486 1486 1487 1488 1488 1489 1490 1492 1494 1496 1497 1499 1500 1501 1502 1504 1505 1506 1508 1510 1511 1512 1513 1513 1514 1515 1516 1517 1517 1518 1519
1509 1510 1510 1509 1507 1501 1502 1489 1479 1481 1481 1481 1482 1483 1483 1483 1482 1483 1483 1483 1484 1484 1485 1485 1486 1488 1489 1491 1493 1494 1494 1495 1497 1499 1501 1502 1504 1505 1506 1508 1509 1509 1510 1511 1512 1513 1513 1514 1514
1510 1511 1511 1509 1507 1504 1499 1495 1475 1477 1475 1475 1478 1479 1479 1480 1480 1479 1479 1480 1480 1481 1481 1482 1483 1484 1486 1487 1489 1490 1491 1492 1493 1495 1496 1498 1499 1500 1502 1503 1504 1505 1505 1506 1507 1508 1509 1509 1510
1513 1512 1510 1508 1505 1500 1495 1491 1474 1471 1472 1472 1474 1476 1476 1477 1477 1476 1476 1476 1477 1478 1478 1479 1479 1479 1481 1483 1484 1485 1486 1487 1489 1490 1492 1493 1494 1495 1496 1498 1499 1500 1501 1501 1502 1503 1504 1504 1505
1512 1509 1502 1498 1496 1488 1492 1489 1474 1469 1471 1472 1472 1473 1473 1474 1473 1473 1473 1472 1473 1473 1474 1475 1475 1476 1477 1479 1479 1480 1482 1483 1484 1486 1487 1488 1489 1489 1491 1492 1494 1495 1496 1496 1497 1498 1499 1499 1500
1510 1508 1505 1498 1488 1480 1488 1481 1468 1470 1471 1472 1472 1471 1472 1472 1472 1471 1471 1470 1469 1469 1470 1471 1471 1471 1472 1473 1474 1475 1477 1478 1479 1481 1482 1483 1484 1485 1486 1487 1489 1490 1491 1492 1492 1493 1493 1494 1494
1509 1507 1508 1506 1502 1494 1478 1474 1469 1468 1469 1470 1470 1470 1469 1470 1469 1468 1468 1467 1467 1466 1466 1467 1467 1467 1467 1468 1469 1470 1472 1473 1475 1476 1478 1478 1479 1480 1482 1483 1484 1485 1486 1487 1487 1488 1489 1489 1490
1510 1508 1509 1505 1498 1484 1472 1468 1463 1466 1467 1468 1469 1468 1468 1468 1467 1466 1465 1464 1463 1463 1462 1463 1463 1463 1462 1463 1464 1465 1467 1468 1470 1472 1472 1473 1474 1476 1477 1478 1479 1481 1481 1482 1483 1483 1484 1485 1485
1509 1509 1507 1503 1499 1487 1474 1463 1462 1465 1466 1466 1467 1467 1466 1465 1464 1463 1462 1461 1460 1460 1459 1459 1459 1459 1458 1459 1459 1461 1462 1463 1465 1466 1467 1468 1469 1471 1472 1473 1475 1476 1477 1477 1478 1478 1479 1479 1480
1507 1504 1504 1501 1498 1494 1481 1468 1465 1466 1466 1467 1466 1466 1464 1463 1462 1461 1460 1459 1458 1456 1456 1455 1455 1455 1455 1455 1456 1456 1457 1458 1460 1461 1462 1464 1465 1466 1467 1468 1470 1471 1472 1472 1473 1473 1474 1474 1475